This is the latest recevied weather packets stored in our database for station/object IK1PCD-11. If no packets are shown the sender has not sent any weather packets the latest 10 day(s).
| Time | Temp. | Humidity | Pressure | Rain* | Wind** | Luminosity | Snow |
|---|---|---|---|---|---|---|---|
| 1788342865 | 20° C | 100% | 1023.7 hPa | - | - | - | - |
| 1788341964 | 20° C | 100% | 1023.3 hPa | - | - | - | - |
| 1788341064 | 18.89° C | 100% | 1023.8 hPa | - | - | - | - |
| 1788337463 | 16.67° C | 100% | 1023.5 hPa | - | - | - | - |
| 1788336563 | 16.67° C | 100% | 1023.3 hPa | - | - | - | - |
| 1788335661 | 16.11° C | 100% | 1023.2 hPa | - | - | - | - |
| 1788334761 | 15.56° C | 100% | 1023.1 hPa | - | - | - | - |
| 1788333861 | 15° C | 100% | 1023 hPa | - | - | - | - |
| 1788332961 | 14.44° C | 100% | 1022.9 hPa | - | - | - | - |
| 1788332060 | 13.33° C | 100% | 1022.8 hPa | - | - | - | - |
| 1788331160 | 13.33° C | 100% | 1022.8 hPa | - | - | - | - |
| 1788330260 | 12.78° C | 100% | 1022.8 hPa | - | - | - | - |
| 1788329360 | 12.78° C | 100% | 1022.7 hPa | - | - | - | - |
| 1788328460 | 12.78° C | 100% | 1022.8 hPa | - | - | - | - |
| 1788327560 | 12.22° C | 100% | 1022.6 hPa | - | - | - | - |
| 1788326660 | 12.22° C | 100% | 1022.3 hPa | - | - | - | - |
| 1788325760 | 12.22° C | 100% | 1022 hPa | - | - | - | - |
| 1788302355 | 13.89° C | 100% | 1022.6 hPa | - | - | - | - |
| 1788299655 | 14.44° C | 100% | 1022.7 hPa | - | - | - | - |
| 1788298755 | 14.44° C | 100% | 1022.5 hPa | - | - | - | - |
| 1788297855 | 14.44° C | 100% | 1022.7 hPa | - | - | - | - |
| 1788296955 | 14.44° C | 100% | 1022.7 hPa | - | - | - | - |
| 1788294254 | 15° C | 100% | 1022.8 hPa | - | - | - | - |
| 1788293354 | 15.56° C | 100% | 1022.7 hPa | - | - | - | - |
| 1788292457 | 15.56° C | 100% | 1022.8 hPa | - | - | - | - |
* Rain since midnight (hover to see other rain measurements)
** Current wind speed in m/s (hover to see current wind gust speed)